TimeEST,TemperatureF,Dew PointF,Humidity,Sea Level PressureIn,VisibilityMPH,Wind Direction,Wind SpeedMPH,Gust SpeedMPH,PrecipitationIn,Events,Conditions,WindDirDegrees,DateUTC
12:15 AM,30.2,30.2,100,30.15,10.0,Calm,Calm,-,N/A,,Clear,0,2012-11-21 05:15:00
12:35 AM,32.0,32.0,100,30.15,10.0,Calm,Calm,-,N/A,,Clear,0,2012-11-21 05:35:00
12:55 AM,32.0,32.0,100,30.15,10.0,Calm,Calm,-,N/A,,Clear,0,2012-11-21 05:55:00
1:15 AM,32.0,32.0,100,30.15,10.0,Calm,Calm,-,N/A,,Clear,0,2012-11-21 06:15:00
1:35 AM,32.0,32.0,100,30.15,10.0,Calm,Calm,-,N/A,,Clear,0,2012-11-21 06:35:00
1:55 AM,32.0,30.2,93,30.16,10.0,Calm,Calm,-,N/A,,Clear,0,2012-11-21 06:55:00
2:15 AM,32.0,30.2,93,30.16,10.0,Calm,Calm,-,N/A,,Clear,0,2012-11-21 07:15:00
2:35 AM,30.2,28.4,93,30.16,10.0,Calm,Calm,-,N/A,,Clear,0,2012-11-21 07:35:00
2:55 AM,30.2,30.2,100,30.16,10.0,Calm,Calm,-,N/A,,Clear,0,2012-11-21 07:55:00
3:15 AM,30.2,30.2,100,30.16,10.0,Calm,Calm,-,N/A,,Clear,0,2012-11-21 08:15:00
3:35 AM,28.4,28.4,100,30.16,10.0,Calm,Calm,-,N/A,,Clear,0,2012-11-21 08:35:00
3:55 AM,28.4,28.4,100,30.16,10.0,Calm,Calm,-,N/A,,Clear,0,2012-11-21 08:55:00
4:15 AM,28.4,28.4,100,30.17,10.0,Calm,Calm,-,N/A,,Clear,0,2012-11-21 09:15:00
4:35 AM,28.4,28.4,100,30.17,10.0,Calm,Calm,-,N/A,,Clear,0,2012-11-21 09:35:00
4:55 AM,26.6,26.6,100,30.18,5.0,Calm,Calm,-,N/A,,Clear,0,2012-11-21 09:55:00
5:15 AM,26.6,26.6,100,30.18,5.0,Calm,Calm,-,N/A,,Clear,0,2012-11-21 10:15:00
5:35 AM,26.6,26.6,100,30.18,7.0,Calm,Calm,-,N/A,,Clear,0,2012-11-21 10:35:00
6:45 AM,24.8,24.8,100,30.20,7.0,Calm,Calm,-,N/A,,Scattered Clouds,0,2012-11-21 11:45:00
7:45 AM,30.2,28.4,93,30.22,8.0,Calm,Calm,-,N/A,,Scattered Clouds,0,2012-11-21 12:45:00
8:45 AM,35.6,32.0,87,30.22,8.0,Calm,Calm,-,N/A,,Scattered Clouds,0,2012-11-21 13:45:00
9:45 AM,46.4,32.0,57,30.22,15.0,ENE,5.8,-,N/A,,Partly Cloudy,70,2012-11-21 14:45:00
10:45 AM,50.0,32.0,50,30.23,15.0,NE,8.1,-,N/A,,Partly Cloudy,50,2012-11-21 15:45:00
11:45 AM,51.8,28.4,41,30.20,15.0,ENE,6.9,-,N/A,,Clear,70,2012-11-21 16:45:00
12:45 PM,53.6,28.4,38,30.19,10.0,East,5.8,-,N/A,,Partly Cloudy,80,2012-11-21 17:45:00
1:45 PM,53.6,26.6,35,30.17,10.0,NE,8.1,-,N/A,,Partly Cloudy,50,2012-11-21 18:45:00
2:45 PM,53.6,24.8,33,30.17,10.0,ESE,4.6,-,N/A,,Partly Cloudy,120,2012-11-21 19:45:00
3:45 PM,53.6,21.2,28,30.18,10.0,ENE,5.8,-,N/A,,Partly Cloudy,70,2012-11-21 20:45:00
4:45 PM,46.4,19.4,34,30.19,10.0,NE,3.5,-,N/A,,Partly Cloudy,50,2012-11-21 21:45:00
5:45 PM,39.2,23.0,52,30.20,10.0,Calm,Calm,-,N/A,,Clear,0,2012-11-21 22:45:00
6:45 PM,33.8,24.8,70,30.22,10.0,Calm,Calm,-,N/A,,Clear,0,2012-11-21 23:45:00
7:45 PM,46.4,24.8,43,30.24,10.0,Calm,Calm,-,N/A,,Clear,0,2012-11-22 00:45:00
8:55 PM,30.2,24.8,80,30.25,10.0,Calm,Calm,-,N/A,,Clear,0,2012-11-22 01:55:00
9:45 PM,28.4,24.8,86,30.24,10.0,Calm,Calm,-,N/A,,Clear,0,2012-11-22 02:45:00
9:55 PM,28.4,26.6,93,30.24,10.0,Calm,Calm,-,N/A,,Clear,0,2012-11-22 02:55:00
10:15 PM,28.4,26.6,93,30.24,10.0,Calm,Calm,-,N/A,,Clear,0,2012-11-22 03:15:00
10:35 PM,26.6,24.8,93,30.24,10.0,Calm,Calm,-,N/A,,Clear,0,2012-11-22 03:35:00
10:55 PM,26.6,24.8,93,30.24,10.0,Calm,Calm,-,N/A,,Clear,0,2012-11-22 03:55:00
11:15 PM,26.6,26.6,100,30.24,10.0,Calm,Calm,-,N/A,,Clear,0,2012-11-22 04:15:00
11:35 PM,26.6,24.8,93,30.24,10.0,Calm,Calm,-,N/A,,Clear,0,2012-11-22 04:35:00
11:55 PM,26.6,24.8,93,30.24,10.0,Calm,Calm,-,N/A,,Clear,0,2012-11-22 04:55:00